Location: Newark
(34.4697°S, 57.8467°W)
Time: 07:26:27
(UTC+00:00)

ISS - Visible Passes

Search period start: 22 July 2019 00:00
Search period end: 01 August 2019 00:00
Orbit: 409 x 418 km, 51.6° (Epoch: 22 July)

Date Brightness Start Highest point End Pass type
(mag) Time Alt. Az. Time Alt. Az. Time Alt. Az.
22 Jul -0.5 09:13:31 10° NNE 09:15:03 13° NE 09:16:35 10° E visible
23 Jul -3.7 09:58:44 10° NW 10:02:05 84° NE 10:05:28 10° SE visible
24 Jul -2.5 09:11:08 22° N 09:12:51 40° NE 09:16:02 10° ESE visible
25 Jul -0.7 08:25:04 16° E 08:25:04 16° E 08:26:14 10° E visible
25 Jul -2.9 09:58:00 16° W 10:00:12 31° SW 10:03:16 10° SSE visible
26 Jul -3.1 09:11:32 45° S 09:11:32 45° S 09:14:09 10° SE visible
27 Jul -0.4 08:24:48 10° SE 08:24:48 10° SE 08:24:51 10° SE visible
27 Jul -1.8 09:57:40 13° SW 09:58:30 14° SSW 10:00:27 10° S visible
28 Jul -1.4 09:10:43 15° S 09:10:43 15° S 09:11:40 10° SSE visible
